Content
SEND FEEDBACK

Daily
Averages
Monthly
Summary
United States of America

CAMP QUEZON, GUAM


Home > North America > United States > Guam
Elevation: 82 meters     Latitude: 13 28N     Longitude: 144 48E

WEATHER
 
SELECT A DAY
Number of Records: 214,954;   Date Range: 1/1/95 - 11/27/14
 
SHARE

PRINT THIS DATA

[ ← Previous Day ]
WEATHER ALMANAC - 21 JULY, 2013
[ Next Day → ]
[ °F ]   °C
Weather ElementAverageHighLow
Temperature29.4 °C32.2 °C (12:54 pm)26.1 °C (4:54 am)
Dewpoint24.5 °C26 °C (9:44 pm)23.9 °C (4:54 am)
Humidity75.4 %89 % (9:44 pm)61 % (12:54 pm)
Barometer1009.5 hPa1011.2 hPa (9:33 pm)1007.8 hPa (2:54 pm)
Wind Speed8.2 km/h20.4 km/h (4:54 pm)
Wind Gust37 km/h (9:33 pm)
Weather ElementAverage
Visibility15.6 km
Wind DirectionENE (63.6 °)

Weather ElementTotal
Precipitation9.65 mm
Cooling Degree Days10.8 (Base 18.3)
Growing Degree Days19.2 (Base 10)
Averaged from 28 records on 21 July, 2013
WEATHER CONDITIONS BREAKOUT
WIND DIRECTION BREAKOUT
WEATHER BY HOUR - 21 JULY, 2013
[ °F ]   °C
Local TimeTemperatureDewpointHumidityBarometerVisibilityWind DirectionWind SpeedGust SpeedPrecipitationEventsConditions
1:54 AM26.7 °C24.4 °C87 %1009.5 hPa16.1 kmCalmClear
2:54 AM26.7 °C24.4 °C87 %1009.1 hPa16.1 kmCalmClear
3:54 AM26.7 °C24.4 °C87 %1008.8 hPa16.1 kmCalmClear
4:54 AM26.1 °C23.9 °C88 %1009.1 hPa16.1 kmCalmClear
5:54 AM26.7 °C23.9 °C85 %1008.5 hPa16.1 kmCalmClear
6:54 AM28.3 °C25 °C82 %1009.1 hPa16.1 kmNE (50°)5.6 km/hClear
7:54 AM29.4 °C25 °C77 %1009.5 hPa16.1 kmCalmClear
8:54 AM29.4 °C24.4 °C74 %1009.8 hPa16.1 kmCalmMostly Cloudy
9:14 AM30 °C24 °C70 %1010.8 hPa16.1 kmESE (110°)9.3 km/hScattered Clouds
9:54 AM30.6 °C24.4 °C69 %1009.5 hPa16.1 kmSE (130°)11.1 km/hMostly Cloudy
10:03 AM31 °C24 °C66 %1010.2 hPa16.1 kmESE (110°)13 km/hScattered Clouds
10:54 AM31.1 °C25 °C70 %1009.5 hPa16.1 kmESE (120°)11.1 km/hMostly Cloudy
11:02 AM31 °C24 °C66 %1010.2 hPa16.1 kmESE (110°)11.1 km/hScattered Clouds
11:54 AM31.7 °C24.4 °C65 %1009.1 hPa16.1 kmSE (140°)13 km/hMostly Cloudy
12:54 PM32.2 °C23.9 °C61 %1008.5 hPa16.1 kmESE (120°)13 km/hScattered Clouds
1:54 PM32.2 °C24.4 °C63 %1008.1 hPa16.1 kmEast (100°)18.5 km/hScattered Clouds
2:54 PM31.7 °C23.9 °C63 %1007.8 hPa16.1 kmEast (90°)13 km/hScattered Clouds
3:54 PM31.1 °C24.4 °C67 %1007.8 hPa16.1 kmEast (90°)13 km/hPartly Cloudy
4:54 PM31.1 °C23.9 °C65 %1007.8 hPa16.1 kmENE (70°)20.4 km/hPartly Cloudy
5:54 PM30.6 °C23.9 °C67 %1008.1 hPa16.1 kmEast (80°)11.1 km/hPartly Cloudy
6:54 PM30 °C24.4 °C72 %1008.8 hPa16.1 kmENE (70°)9.3 km/hPartly Cloudy
7:54 PM28.9 °C25 °C79 %1009.8 hPa16.1 kmNE (40°)9.3 km/hPartly Cloudy
8:54 PM29.4 °C25 °C77 %1010.2 hPa16.1 kmENE (70°)7.4 km/hPartly Cloudy
9:33 PM28 °C24 °C79 %1011.2 hPa2.9 kmNNE (30°)16.7 km/h37 km/h2.54 mmRainHeavy Rain
9:44 PM28 °C26 °C89 %1011.2 hPa16.1 kmENE (60°)9.3 km/h3.56 mmMostly Cloudy
9:54 PM28.3 °C25.6 °C85 %1010.5 hPa16.1 kmESE (110°)5.6 km/h3.56 mmMostly Cloudy
10:54 PM28.3 °C25.6 °C85 %1010.8 hPa16.1 kmEast (80°)9.3 km/hPartly Cloudy
11:54 PM27.8 °C25 °C85 %1010.5 hPa16.1 kmCalmPartly Cloudy
Hourly data recorded from PGUM, located 0 kilometers away from Camp Quezon, Guam







STORIES FROM OUR PARTNERS